Weather History for KDVK - November, 2013

Change the Weather History Date:

Saturday, November 9, 2013

  Actual Average (KLEX) Record (KLEX)
Temperature  
Mean Temperature 46 °F 49 °F  
Max Temperature 59 °F 59 °F 76 °F (1975)
Min Temperature 32 °F 40 °F 17 °F (1991)
Degree Days  
Heating Degree Days 20 16  
Month to date heating degree days 132  
Since 1 July heating degree days 458  
Cooling Degree Days 0 0  
Month to date cooling degree days 0  
Year to date cooling degree days 1188  
Moisture  
Dew Point 29 °F    
Average Humidity 56    
Maximum Humidity 93    
Minimum Humidity 29    
Precipitation  
Precipitation 0.00 in 0.10 in 1.80 in (1962)
Month to date precipitation 0.99  
Year to date precipitation 38.70  
Snow  
Snow 0.00 in 0.00 in 1.20 in (1913)
Month to date snowfall 0.0  
Since 1 July snowfall 0.0  
Since 1 September snowfall 0.0  
Snow Depth -    
Sea Level Pressure  
Sea Level Pressure 30.21 in    
Wind  
Wind Speed 6 mph (SW)    
Max Wind Speed 24 mph    
Max Gust Speed 30 mph    
Visibility 10 miles    
Events      
T = Trace of Precipitation, MM = Missing Value Source: NWS Daily Summary

Daily Weather History Graph

Daily Weather History Graph

Search for Another Location

Airport or City:

Trip Planner

Search our weather history database for the weather conditions in past years. The results will help you decide how hot, cold, wet, or windy it might be!

Date:

Astronomy

Nov. 09, 2013 Rise Set
Actual Time 7:12 AM EST 5:32 PM EST
Civil Twilight 6:45 AM EST 6:00 PM EST
Nautical Twilight 6:13 AM EST 6:31 PM EST
Astronomical Twilight 5:43 AM EST 7:02 PM EST
Moon 12:50 PM EST (11/9) No Moon Set
Length of Visible Light 11h 15m
Length of Day
10h 19m
Waxing Crescent, 44% of the Moon is Illuminated
Nov 9
Waxing Crescent
Nov 10
First Quarter
Nov 17
Full
Nov 25
Last Quarter
Dec 2
New

Hourly Weather History & Observations

Time (EST) Temp. Windchill Dew Point Humidity Pressure Visibility Wind Dir Wind Speed Gust Speed Precip Events Conditions
12:15 AM 32.0 °F - 30.2 °F 93% 30.28 in 10.0 mi Calm Calm - N/A   Clear
12:35 AM 32.0 °F 28.7 °F 28.4 °F 87% 30.28 in 10.0 mi South 3.5 mph - N/A   Clear
12:55 AM 32.0 °F - 30.2 °F 93% 30.28 in 10.0 mi Calm Calm - N/A   Clear
1:15 AM 32.0 °F - 30.2 °F 93% 30.27 in 10.0 mi Calm Calm - N/A   Clear
1:35 AM 32.0 °F 28.7 °F 30.2 °F 93% 30.27 in 10.0 mi South 3.5 mph - N/A   Clear
1:55 AM 32.0 °F - 28.4 °F 87% 30.27 in 10.0 mi Calm Calm - N/A   Clear
2:15 AM 32.0 °F - 28.4 °F 87% 30.27 in 10.0 mi Calm Calm - N/A   Clear
2:35 AM 32.0 °F 27.5 °F 28.4 °F 87% 30.27 in 10.0 mi SSW 4.6 mph - N/A   Clear
2:55 AM 33.8 °F 30.8 °F 26.6 °F 75% 30.26 in 10.0 mi South 3.5 mph - N/A   Clear
3:15 AM 33.8 °F 30.8 °F 26.6 °F 75% 30.26 in 10.0 mi South 3.5 mph - N/A   Clear
3:35 AM 33.8 °F 28.6 °F 26.6 °F 75% 30.25 in 10.0 mi South 5.8 mph - N/A   Clear
3:55 AM 33.8 °F 28.6 °F 26.6 °F 75% 30.24 in 10.0 mi South 5.8 mph - N/A   Clear
4:15 AM 32.0 °F 25.6 °F 26.6 °F 80% 30.23 in 10.0 mi SW 6.9 mph - N/A   Clear
4:35 AM 32.0 °F 25.6 °F 26.6 °F 80% 30.23 in 10.0 mi SW 6.9 mph - N/A   Clear
4:55 AM 33.8 °F 27.7 °F 26.6 °F 75% 30.23 in 10.0 mi SW 6.9 mph - N/A   Clear
5:15 AM 33.8 °F 29.6 °F 26.6 °F 75% 30.23 in 10.0 mi SW 4.6 mph - N/A   Clear
5:35 AM 33.8 °F 28.6 °F 26.6 °F 75% 30.23 in 10.0 mi SW 5.8 mph - N/A   Clear
5:55 AM 33.8 °F 28.6 °F 26.6 °F 75% 30.24 in 10.0 mi SW 5.8 mph - N/A   Clear
6:15 AM 33.8 °F 28.6 °F 26.6 °F 75% 30.24 in 10.0 mi SSW 5.8 mph - N/A   Clear
6:35 AM 33.8 °F 28.6 °F 26.6 °F 75% 30.24 in 10.0 mi SSW 5.8 mph - N/A   Clear
6:55 AM 33.8 °F 27.7 °F 26.6 °F 75% 30.24 in 10.0 mi SSW 6.9 mph - N/A   Clear
7:15 AM 33.8 °F 27.7 °F 26.6 °F 75% 30.24 in 10.0 mi SSW 6.9 mph - N/A   Clear
7:35 AM 33.8 °F 29.6 °F 26.6 °F 75% 30.24 in 10.0 mi SSW 4.6 mph - N/A   Clear
7:55 AM 33.8 °F 29.6 °F 26.6 °F 75% 30.24 in 10.0 mi South 4.6 mph - N/A   Clear
8:15 AM 35.6 °F 30.7 °F 26.6 °F 70% 30.24 in 10.0 mi South 5.8 mph - N/A   Clear
8:35 AM 37.4 °F - 28.4 °F 70% 30.24 in 10.0 mi Calm Calm - N/A   Clear
8:55 AM 39.2 °F 34.2 °F 28.4 °F 65% 30.25 in 10.0 mi SSW 6.9 mph - N/A   Clear
9:15 AM 42.8 °F 38.0 °F 28.4 °F 57% 30.25 in 10.0 mi SSW 8.1 mph - N/A   Clear
9:35 AM 44.6 °F 39.7 °F 30.2 °F 57% 30.25 in 10.0 mi SSW 9.2 mph - N/A   Clear
9:55 AM 46.4 °F 41.5 °F 28.4 °F 50% 30.25 in 10.0 mi SSW 10.4 mph - N/A   Clear
10:15 AM 50.0 °F - 28.4 °F 43% 30.25 in 10.0 mi SSW 10.4 mph - N/A   Clear
10:35 AM 50.0 °F - 30.2 °F 47% 30.24 in 10.0 mi SSW 8.1 mph - N/A   Clear
10:55 AM 51.8 °F - 30.2 °F 44% 30.24 in 10.0 mi SSW 11.5 mph - N/A   Clear
11:15 AM 53.6 °F - 30.2 °F 41% 30.23 in 10.0 mi SW 9.2 mph 20.7 mph N/A   Clear
11:35 AM 55.4 °F - 30.2 °F 38% 30.23 in 10.0 mi SW 16.1 mph 25.3 mph N/A   Clear
11:55 AM 55.4 °F - 30.2 °F 38% 30.22 in 10.0 mi WSW 13.8 mph 24.2 mph N/A   Clear
12:15 PM 55.4 °F - 28.4 °F 36% 30.20 in 10.0 mi WSW 16.1 mph 26.5 mph N/A   Clear
12:35 PM 55.4 °F - 30.2 °F 38% 30.19 in 10.0 mi SW 16.1 mph 26.5 mph N/A   Clear
12:55 PM 55.4 °F - 28.4 °F 36% 30.19 in 10.0 mi WSW 15.0 mph 29.9 mph N/A   Clear
1:15 PM 55.4 °F - 30.2 °F 38% 30.19 in 10.0 mi SW 17.3 mph 27.6 mph N/A   Clear
1:35 PM 55.4 °F - 30.2 °F 38% 30.18 in 10.0 mi SW 20.7 mph 26.5 mph N/A   Clear
1:55 PM 55.4 °F - 30.2 °F 38% 30.17 in 10.0 mi SW 17.3 mph 25.3 mph N/A   Clear
2:15 PM 59.0 °F - 28.4 °F 31% 30.17 in 10.0 mi SW 24.2 mph 29.9 mph N/A   Clear
2:35 PM 59.0 °F - 26.6 °F 29% 30.17 in 10.0 mi WSW 13.8 mph 23.0 mph N/A   Clear
2:55 PM 59.0 °F - 26.6 °F 29% 30.16 in 10.0 mi SW 15.0 mph 23.0 mph N/A   Scattered Clouds
3:15 PM 59.0 °F - 26.6 °F 29% 30.16 in 10.0 mi SW 19.6 mph 26.5 mph N/A   Scattered Clouds
3:35 PM 59.0 °F - 26.6 °F 29% 30.16 in 10.0 mi SW 16.1 mph 20.7 mph N/A   Scattered Clouds
3:55 PM 57.2 °F - 26.6 °F 31% 30.16 in 10.0 mi WSW 12.7 mph 23.0 mph N/A   Scattered Clouds
4:15 PM 57.2 °F - 26.6 °F 31% 30.15 in 10.0 mi SW 13.8 mph 17.3 mph N/A   Clear
4:35 PM 57.2 °F - 26.6 °F 31% 30.15 in 10.0 mi WSW 10.4 mph 20.7 mph N/A   Clear
4:55 PM 55.4 °F - 28.4 °F 36% 30.15 in 10.0 mi SW 8.1 mph - N/A   Scattered Clouds
5:15 PM 55.4 °F - 26.6 °F 33% 30.15 in 10.0 mi WSW 9.2 mph 18.4 mph N/A   Mostly Cloudy
5:35 PM 53.6 °F - 28.4 °F 38% 30.16 in 10.0 mi SW 5.8 mph - N/A   Mostly Cloudy
5:55 PM 51.8 °F - 28.4 °F 41% 30.16 in 10.0 mi SW 6.9 mph - N/A   Scattered Clouds
6:15 PM 51.8 °F - 30.2 °F 44% 30.17 in 10.0 mi SW 5.8 mph - N/A   Clear
6:35 PM 50.0 °F - 30.2 °F 47% 30.17 in 10.0 mi SW 5.8 mph - N/A   Clear
7:15 PM 50.0 °F - 30.2 °F 47% 30.18 in 10.0 mi SW 6.9 mph - N/A   Clear
7:35 PM 50.0 °F - 30.2 °F 47% 30.17 in 10.0 mi SW 9.2 mph - N/A   Clear
7:55 PM 50.0 °F - 30.2 °F 47% 30.18 in 10.0 mi SW 9.2 mph - N/A   Clear
8:15 PM 50.0 °F - 32.0 °F 50% 30.18 in 10.0 mi WSW 9.2 mph - N/A   Clear
8:35 PM 50.0 °F - 32.0 °F 50% 30.19 in 10.0 mi SW 11.5 mph - N/A   Clear
8:55 PM 50.0 °F - 32.0 °F 50% 30.19 in 10.0 mi SW 11.5 mph 19.6 mph N/A   Clear
9:35 PM 50.0 °F - 32.0 °F 50% 30.20 in 10.0 mi WSW 10.4 mph 21.9 mph N/A   Clear
9:55 PM 50.0 °F - 32.0 °F 50% 30.20 in 10.0 mi WSW 11.5 mph - N/A   Clear
10:15 PM 50.0 °F - 32.0 °F 50% 30.21 in 10.0 mi WSW 10.4 mph - N/A   Clear
10:35 PM 50.0 °F - 32.0 °F 50% 30.21 in 10.0 mi WSW 11.5 mph 16.1 mph N/A   Clear
10:55 PM 50.0 °F - 32.0 °F 50% 30.21 in 10.0 mi WSW 10.4 mph - N/A   Clear
11:15 PM 50.0 °F - 32.0 °F 50% 30.21 in 10.0 mi WSW 11.5 mph 16.1 mph N/A   Clear
11:35 PM 50.0 °F - 32.0 °F 50% 30.21 in 10.0 mi West 10.4 mph - N/A   Clear
11:55 PM 48.2 °F - 32.0 °F 54% 30.21 in 10.0 mi WSW 9.2 mph - N/A   Clear